ILAIGU24 Weather Reports


time (UTC)temp
C
wind
direction
speed
KPH
gust
KPH
rain 1hr
cm
rain 24hr
cm
rain mn
cm
humidity
%
barometer
mb
20260505211521 13 250 3.2 4.8 0.00 3.51 2.90 90 1013.5
20260505210021 13 250 3.2 6.4 0.00 3.51 2.90 90 1013.5
20260505204516 13 250 3.2 6.4 0.00 3.51 2.90 90 1013.6
20260505203029 13 251 3.2 6.4 0.00 3.51 2.90 90 1013.5
20260505201523 13 246 3.2 6.4 0.00 3.51 2.90 89 1013.6
20260505200035 13 246 3.2 6.4 0.00 3.51 2.90 89 1013.6
20260505194524 13 246 3.2 6.4 0.00 3.51 2.90 89 1013.5
20260505193006 13 246 3.2 6.4 0.00 3.51 2.90 88 1013.5
20260505191518 13 253 3.2 6.4 0.00 3.51 2.90 88 1013.1
20260505190004 13 244 3.2 6.4 0.00 3.51 2.90 87 1013.0
20260505184510 14 240 3.2 6.4 0.00 3.51 2.90 87 1013.1
20260505183008 14 244 4.8 6.4 0.00 3.53 2.90 86 1013.2
20260505181503 15 243 3.2 6.4 0.00 3.53 2.90 85 1013.1
20260505180008 15 242 3.2 6.4 0.00 3.53 2.90 83 1013.1
20260505174507 16 256 3.2 6.4 0.00 3.53 2.90 81 1013.3
20260505173002 17 239 0.0 0.0 0.00 3.53 2.90 77 1013.3
20260505171508 17 94 0.0 4.8 0.00 3.53 2.90 75 1013.4
20260505170009 17 121 0.0 3.2 0.00 3.53 2.90 75 1013.5
20260505164506 17 101 0.0 4.8 0.00 3.53 2.90 74 1013.6
20260505163016 17 82 0.0 0.0 0.00 3.53 2.90 74 1013.6
20260505161508 17 95 0.0 0.0 0.00 3.53 2.90 74 1013.6
20260505153012 17 116 0.0 4.8 0.00 3.53 2.90 73 1013.6
20260505151508 17 115 0.0 4.8 0.00 3.53 2.90 72 1013.6
20260505124507 17 118 0.0 6.4 0.00 3.53 2.90 78 1013.8
20260505123003 17 107 0.0 0.0 0.00 3.53 2.90 78 1013.8
20260505121516 17 92 0.0 0.0 0.00 3.53 2.90 78 1013.9
20260505120029 17 109 0.0 4.8 0.00 3.53 2.90 80 1013.9
20260505114503 16 288 0.0 1.6 0.00 3.53 2.90 82 1013.9
20260505113008 16 288 1.6 4.8 0.00 3.53 2.90 80 1013.9
20260505111514 16 117 3.2 8.0 0.00 3.53 2.90 80 1013.9
20260505101511 16 121 0.0 0.0 0.00 3.53 2.90 82 1013.8
20260505100012 16 121 0.0 0.0 0.00 3.53 2.90 83 1013.8
20260505094507 16 70 0.0 0.0 0.00 3.53 2.90 83 1013.8
20260505093020 16 70 0.0 0.0 0.00 3.53 2.90 83 1013.8
20260505091507 16 120 0.0 4.8 0.00 3.51 2.87 83 1013.7
20260505090019 16 119 0.0 4.8 0.00 3.51 2.87 85 1013.6
20260505084518 16 128 0.0 0.0 0.05 3.51 2.87 87 1013.6
20260505083021 15 128 0.0 0.0 0.08 3.51 2.87 88 1013.5
20260505081512 15 252 0.0 0.0 0.08 3.51 2.87 90 1013.5
20260505080012 15 252 0.0 4.8 0.08 3.51 2.87 89 1013.5
20260505074516 15 76 0.0 12.9 0.00 3.45 2.82 88 1014.0
20260505073022 15 256 0.0 0.0 0.00 3.43 2.79 89 1012.8
20260505071531 15 256 0.0 0.0 0.00 3.43 2.79 90 1012.7
20260505070019 15 256 3.2 6.4 0.00 3.43 2.79 90 1012.6
20260505064516 15 254 1.6 4.8 0.00 3.43 2.79 91 1012.4
20260505063017 14 254 1.6 4.8 0.00 3.43 2.79 91 1012.3
20260505061525 14 251 1.6 4.8 0.00 3.43 2.79 91 1012.5
20260505060041 14 245 0.0 1.6 0.00 3.43 2.79 92 1012.4
20260505054529 13 245 0.0 3.2 0.00 3.43 2.79 91 1012.2
20260505053026 13 245 1.6 4.8 0.00 3.43 2.79 91 1012.1
20260505051525 13 225 0.0 0.0 0.00 3.43 2.79 91 1012.0
20260505041507 13 246 3.2 4.8 0.15 3.40 2.77 90 1012.3
20260505040005 13 293 3.2 9.7 0.28 3.38 2.74 90 1012.4
20260505034505 13 294 4.8 16.1 0.53 3.38 2.72 90 1012.2
20260505033005 13 263 9.7 16.1 0.61 3.33 2.69 91 1012.9
20260505031516 13 249 9.7 20.9 0.58 3.25 2.62 91 1013.1
20260505030014 13 265 6.4 14.5 0.48 3.10 2.44 91 1013.0
20260505024509 13 244 8.0 16.1 0.33 2.82 2.18 91 1013.6
20260505023018 14 257 4.8 11.3 0.38 2.72 2.06 91 1013.4
20260505021513 14 252 1.6 6.4 0.43 2.64 2.01 91 1013.3
20260505020007 15 295 0.0 4.8 0.48 2.59 1.96 91 1013.4
20260505014522 15 248 3.2 9.7 0.51 2.49 1.85 91 1013.4
20260505013004 15 234 1.6 6.4 0.46 2.31 1.68 91 1013.6
20260505011512 15 286 0.0 3.2 0.48 2.21 1.57 91 1013.9
20260505010012 15 286 0.0 6.4 0.41 2.08 1.45 91 1014.0
20260505004506 15 255 6.4 11.3 0.36 1.96 1.32 91 1014.3
20260505003004 15 285 4.8 8.0 0.25 1.83 1.19 90 1014.7
20260505001504 15 263 3.2 6.4 0.20 1.70 1.07 90 1014.9
20260505000019 16 115 3.2 6.4 0.28 1.68 1.02 90 1015.2
20260504234514 16 88 3.2 9.7 0.28 1.60 0.97 92 1015.3
20260504233014 15 267 3.2 9.7 0.36 1.57 0.94 90 1015.6
20260504231512 14 262 4.8 14.5 0.43 1.50 0.84 89 1015.9
20260504230008 15 242 4.8 8.0 0.74 1.37 0.74 89 1016.1
20260504224513 15 252 3.2 9.7 1.12 1.32 0.69 88 1016.2
20260504223020 15 242 0.0 11.3 1.14 1.22 0.56 88 1016.3
20260504221521 15 252 0.0 14.5 1.02 1.04 0.41 87 1016.4
20260504220036 15 265 6.4 9.7 0.61 0.64 0.00 86 1016.7
20260504214520 15 291 1.6 9.7 0.18 0.18 0.18 84 1017.0
20260504213010 16 259 4.8 12.9 0.03 0.05 0.05 81 1017.0